Weather History for PHNL - June, 2013

Change the Weather History Date:

Saturday, June 15, 2013

  Actual Average Record
Temperature  
Mean Temperature 78 °F 80 °F  
Max Temperature 84 °F 87 °F 90 °F (1982)
Min Temperature 72 °F 74 °F 67 °F (1971)
Degree Days  
Heating Degree Days 0 0  
Month to date heating degree days 0 0  
Since 1 June heating degree days 0 0  
Since 1 July heating degree days 0 0  
Cooling Degree Days 13 15  
Month to date cooling degree days 214 222  
Year to date cooling degree days 1674 1724  
Since 1 June cooling degree days 214 222  
Growing Degree Days 28 (Base 50)    
Moisture  
Dew Point 64 °F    
Average Humidity 65    
Maximum Humidity 79    
Minimum Humidity 51    
Precipitation  
Precipitation 0.00 in 0.01 in 2.00 in (1971)
Month to date precipitation 0.02 0.14  
Year to date precipitation 8.48 7.71  
Snow  
Snow 0.00 in - - ()
Month to date snowfall 0.0  
Since 1 June snowfall 0.0  
Since 1 July snowfall 0.0  
Snow Depth 0.00 in    
Sea Level Pressure  
Sea Level Pressure 30.00 in    
Wind  
Wind Speed 13 mph (ENE)    
Max Wind Speed 23 mph    
Max Gust Speed 31 mph    
Visibility 10 miles    
Events      
T = Trace of Precipitation, MM = Missing Value Source: NWS Daily Summary

Daily Weather History Graph

Daily Weather History Graph

Search for Another Location

Airport or City:

Trip Planner

Search our weather history database for the weather conditions in past years. The results will help you decide how hot, cold, wet, or windy it might be!

Date:

Astronomy

Jun. 15, 2013 Rise Set
Actual Time 5:49 AM HST 7:15 PM HST
Civil Twilight 5:24 AM HST 7:39 PM HST
Nautical Twilight 4:55 AM HST 8:09 PM HST
Astronomical Twilight 4:24 AM HST 8:40 PM HST
Moon 11:51 AM HST (6/15) No Moon Set
Length of Visible Light 14h 15m
Length of Day
13h 25m
Waxing Crescent, 42% of the Moon is Illuminated
Jun 15
Waxing Crescent
Jun 16
First Quarter
Jun 23
Full
Jun 29
Last Quarter
Jul 7
New

Hourly Weather History & Observations

Time (HST) Temp. Heat Index Dew Point Humidity Pressure Visibility Wind Dir Wind Speed Gust Speed Precip Events Conditions
12:53 AM 73.9 °F - 64.0 °F 71% 30.04 in 10.0 mi NE 10.4 mph 19.6 mph N/A   Partly Cloudy
1:53 AM 73.9 °F - 64.0 °F 71% 30.02 in 10.0 mi ENE 10.4 mph - N/A   Scattered Clouds
2:53 AM 73.0 °F - 64.9 °F 76% 30.01 in 10.0 mi ENE 8.1 mph - N/A   Partly Cloudy
3:53 AM 72.0 °F - 64.9 °F 78% 30.01 in 10.0 mi ENE 5.8 mph - N/A   Partly Cloudy
4:53 AM 73.0 °F - 64.0 °F 73% 30.01 in 10.0 mi Variable 6.9 mph - N/A   Partly Cloudy
5:53 AM 73.0 °F - 64.0 °F 73% 30.01 in 10.0 mi ENE 10.4 mph - N/A   Scattered Clouds
6:53 AM 73.9 °F - 64.9 °F 73% 30.03 in 10.0 mi ENE 11.5 mph - N/A   Scattered Clouds
7:53 AM 77.0 °F - 64.9 °F 66% 30.04 in 10.0 mi East 12.7 mph - N/A   Scattered Clouds
8:53 AM 78.1 °F - 64.0 °F 62% 30.04 in 10.0 mi ENE 17.3 mph - N/A   Scattered Clouds
9:53 AM 80.1 °F 81.5 °F 63.0 °F 56% 30.03 in 10.0 mi NE 17.3 mph 25.3 mph N/A   Scattered Clouds
10:53 AM 82.9 °F 84.0 °F 63.0 °F 51% 30.01 in 10.0 mi NE 15.0 mph 21.9 mph N/A   Scattered Clouds
11:53 AM 82.9 °F 84.0 °F 63.0 °F 51% 30.01 in 10.0 mi ENE 16.1 mph 24.2 mph N/A   Scattered Clouds
12:53 PM 82.9 °F 84.0 °F 63.0 °F 51% 29.99 in 10.0 mi ENE 15.0 mph 26.5 mph N/A   Scattered Clouds
1:53 PM 82.9 °F 84.0 °F 63.0 °F 51% 29.98 in 10.0 mi ENE 19.6 mph 26.5 mph N/A   Scattered Clouds
2:53 PM 82.9 °F 84.0 °F 63.0 °F 51% 29.96 in 10.0 mi ENE 18.4 mph 26.5 mph N/A   Scattered Clouds
3:53 PM 82.9 °F 84.0 °F 63.0 °F 51% 29.95 in 10.0 mi NNE 13.8 mph - N/A   Scattered Clouds
4:53 PM 79.0 °F - 63.0 °F 58% 29.95 in 10.0 mi ENE 11.5 mph 21.9 mph N/A   Scattered Clouds
5:53 PM 79.0 °F - 63.0 °F 58% 29.96 in 10.0 mi NE 11.5 mph - N/A   Scattered Clouds
6:53 PM 77.0 °F - 64.9 °F 66% 29.97 in 10.0 mi NE 11.5 mph - N/A   Scattered Clouds
7:53 PM 75.0 °F - 64.0 °F 69% 29.99 in 10.0 mi NE 12.7 mph - N/A   Scattered Clouds
8:53 PM 75.0 °F - 64.0 °F 69% 29.99 in 10.0 mi NE 12.7 mph - N/A   Partly Cloudy
9:53 PM 73.9 °F - 64.9 °F 73% 30.01 in 10.0 mi ENE 5.8 mph - N/A   Scattered Clouds
10:53 PM 73.9 °F - 64.9 °F 73% 30.01 in 10.0 mi ENE 8.1 mph - N/A   Scattered Clouds
11:53 PM 73.9 °F - 64.9 °F 73% 30.00 in 10.0 mi ENE 10.4 mph - N/A   Scattered Clouds